Flag for Colombia Weather past 2 weeks in Ibagué, Colombia

Now
72 °F

Scattered clouds.


Feels Like: 74 °F
Forecast: 57 / 68 °F
Wind: 5 mph from Southwest

Location: Pereira / Matecana

Current Time: Apr 1, 2015 at 9:33:32 AM

Latest Report: Apr 1, 2015 at 9:00 AM


Visibility: N/A

Pressure: 30.10 "Hg

Humidity: 73%

Dew point: 63 °F

Location of IbaguéLocation

Historic Weather in Ibagué — Graph

°F

Ibagué temperature yesterday

Maximum temperature yesterday: 81 °F (at 2:00 PM)
Minimum temperature yesterday: 61 °F (at 6:00 AM)
Average temperature yesterday: 71 °F

Past Weeks' High & Low Weather Summary

 TemperatureHumidityPressure
High82 °F (Mar 17, 2:00 PM)100% (Mar 26, 7:00 AM)30.19 "Hg (Mar 26, 7:00 AM)
Low61 °F (Mar 31, 6:00 AM)48% (Mar 23, 4:00 PM)29.94 "Hg (Mar 17, 4:00 PM)
Average72 °F78%30.09 "Hg
* Reported Mar 17 8:00 AM — Apr 1 8:00 AM, Ibagué, Weather by CustomWeather, © 2015

Note: Actual official high and low records may vary slightly from our data, if they occured in-between our weather recording intervals... More about our weather records

Advertising

Ibagué weather history for previous 24 hours

 ConditionsComfort  
Time TempWeatherWind HumidityBarometerVisibility
8:00 AM
Wed, Apr 1
68 °FScattered clouds.2 mph83%30.09 "HgN/A
7:00 AM68 °FScattered clouds.6 mph83%30.06 "HgN/A
6:00 AM68 °FPassing clouds.7 mph83%30.04 "HgN/A
5:00 AM68 °FPassing clouds.2 mph83%30.03 "HgN/A
1:00 AM70 °FPassing clouds.5 mph78%30.04 "HgN/A
12:00 AM70 °FPassing clouds.7 mph78%30.07 "HgN/A
11:00 PM
Tue, Mar 31
70 °FPartly cloudy.7 mph78%30.06 "HgN/A
10:00 PM72 °FScattered showers. Passing clouds.5 mph73%30.06 "HgN/A
9:00 PM72 °FScattered showers. Passing clouds.9 mph73%30.03 "HgN/A
8:00 PM73 °FPassing clouds.7 mph74%30.01 "HgN/A
7:00 PM73 °FPassing clouds.5 mph74%29.98 "HgN/A
6:00 PM75 °FScattered clouds.9 mph69%29.95 "HgN/A
5:00 PM81 °FScattered clouds.6 mph54%29.94 "HgN/A
4:00 PM81 °FScattered clouds.8 mph62%29.94 "HgN/A
3:00 PM81 °FScattered clouds.7 mph58%29.98 "HgN/A
2:00 PM81 °FScattered clouds.7 mph62%30.01 "HgN/A
1:00 PM79 °FPassing clouds.6 mph65%30.03 "HgN/A
12:00 PM75 °FScattered clouds.5 mph69%30.08 "HgN/A
11:00 AM72 °FPassing clouds.5 mph78%N/AN/A
10:00 AM70 °FScattered clouds.6 mph78%30.14 "HgN/A
9:00 AM66 °FScattered clouds.2 mph88%30.15 "Hg5 mi
Weather by CustomWeather, © 2015

See weather overviewHow to use our weather pages